Location: Unspecified
(0.0000°N, 0.0000°E)
Time: 06:32:14
(UTC+01:00)

HST - Visible Passes

Search period start: 01 November 2014 00:00
Search period end: 11 November 2014 00:00
Orbit: 546 x 550 km, 28.5° (Epoch: 31 October)

Date Brightness Start Highest point End Pass type
(mag) Time Alt. Az. Time Alt. Az. Time Alt. Az.
07 Nov 2.6 19:33:54 10° N 19:36:11 14° NNE 19:36:49 14° NE visible
08 Nov 2.3 19:25:45 10° NNW 19:28:52 20° NNE 19:30:43 16° ENE visible
08 Nov 3.8 21:06:07 10° WNW 21:06:19 11° WNW 21:06:19 11° WNW visible
09 Nov 1.8 19:17:52 10° NNW 19:21:31 29° NNE 19:24:46 12° E visible
09 Nov 3.3 20:58:55 10° W 21:00:22 20° W 21:00:22 20° W visible
10 Nov 1.2 19:10:10 10° NW 19:14:09 43° NNE 19:18:08 10° ESE visible
10 Nov 2.9 20:51:53 10° W 20:54:31 25° SW 20:54:31 25° SW visible
